Location: Cisewo
(53.3833°N, 14.9000°E)
Time: 14:50:00
(UTC+00:00)

NOAA 18 - Pass Details

Date: 23 September 2021
Orbit: 841 x 860 km, 99.0° (Epoch: 25 October)

Event Time Altitude Azimuth Distance (km) Brightness Sun altitude
Exits shadow 18:25:25 17° 83° (E) 2,039 6.7 -13.9°
Maximum altitude 18:27:39 21° 52° (NE) 1,811 6.6 -14.2°
Drops below altitude 10° 18:31:39 10° 5° (N) 2,485 7.8 -14.8°
Sets 18:34:33 0° 350° (N) 3,429 8.8 -15.2°
